| time (UTC) | temp F | wind direction | speed MPH | gust MPH | rain 1hr in | rain 24hr in | rain mn in | humidity % | barometer mb |
| 20260507134346 | 47 | 259 | 6.0 | 9.0 | 0.00 | 0.00 | 0.00 | 38 | 1012.3 |
| 20260507133843 | 46 | 263 | 5.0 | 9.0 | 0.00 | 0.00 | 0.00 | 38 | 1012.0 |
| 20260507133345 | 46 | 240 | 5.0 | 7.0 | 0.00 | 0.00 | 0.00 | 38 | 1012.0 |
| 20260507133114 | 46 | 221 | 5.0 | 7.0 | 0.00 | 0.00 | 0.00 | 38 | 1012.0 |
| 20260507132344 | 46 | 221 | 6.0 | 8.0 | 0.00 | 0.00 | 0.00 | 37 | 1011.9 |
| 20260507131843 | 45 | 232 | 6.0 | 8.0 | 0.00 | 0.00 | 0.00 | 37 | 1011.9 |
| 20260507131339 | 45 | 275 | 6.0 | 8.0 | 0.00 | 0.00 | 0.00 | 38 | 1011.8 |
| 20260507130841 | 45 | 276 | 6.0 | 8.0 | 0.00 | 0.00 | 0.00 | 37 | 1011.8 |
| 20260507130340 | 45 | 275 | 6.0 | 8.0 | 0.00 | 0.00 | 0.00 | 37 | 1011.8 |
| 20260507125840 | 44 | 275 | 6.0 | 8.0 | 0.00 | 0.00 | 0.00 | 37 | 1011.7 |
| 20260507125608 | 44 | 275 | 6.0 | 8.0 | 0.00 | 0.00 | 0.00 | 37 | 1011.7 |
| 20260507124839 | 44 | 275 | 6.0 | 8.0 | 0.00 | 0.00 | 0.00 | 37 | 1011.6 |
| 20260507124333 | 44 | 286 | 6.0 | 8.0 | 0.00 | 0.00 | 0.00 | 38 | 1011.6 |
| 20260507123834 | 44 | 286 | 6.0 | 9.0 | 0.00 | 0.00 | 0.00 | 39 | 1011.6 |
| 20260507123335 | 44 | 277 | 7.0 | 9.0 | 0.00 | 0.00 | 0.00 | 38 | 1011.5 |
| 20260507122834 | 43 | 273 | 7.0 | 10.0 | 0.00 | 0.00 | 0.00 | 38 | 1011.2 |
| 20260507122335 | 43 | 234 | 8.0 | 11.0 | 0.00 | 0.00 | 0.00 | 39 | 1011.2 |
| 20260507121830 | 42 | 245 | 8.0 | 11.0 | 0.00 | 0.00 | 0.00 | 39 | 1011.2 |
| 20260507121557 | 42 | 228 | 8.0 | 10.0 | 0.00 | 0.00 | 0.00 | 39 | 1011.2 |
| 20260507120824 | 42 | 216 | 9.0 | 11.0 | 0.00 | 0.00 | 0.00 | 39 | 1011.1 |
| 20260507120323 | 42 | 223 | 9.0 | 12.0 | 0.00 | 0.00 | 0.00 | 39 | 1011.0 |
| 20260507115823 | 42 | 214 | 9.0 | 12.0 | 0.00 | 0.00 | 0.00 | 39 | 1011.0 |
| 20260507115554 | 42 | 217 | 9.0 | 12.0 | 0.00 | 0.00 | 0.00 | 39 | 1011.0 |
| 20260507114824 | 41 | 219 | 9.0 | 11.0 | 0.00 | 0.00 | 0.00 | 40 | 1010.9 |
| 20260507114320 | 41 | 212 | 9.0 | 11.0 | 0.00 | 0.00 | 0.00 | 40 | 1010.9 |
| 20260507113819 | 41 | 232 | 10.0 | 12.0 | 0.00 | 0.00 | 0.00 | 40 | 1010.9 |
| 20260507113319 | 41 | 225 | 10.0 | 15.0 | 0.00 | 0.00 | 0.00 | 40 | 1010.8 |
| 20260507112820 | 42 | 225 | 10.0 | 15.0 | 0.00 | 0.00 | 0.00 | 40 | 1010.8 |
| 20260507112320 | 41 | 212 | 10.0 | 12.0 | 0.00 | 0.00 | 0.00 | 40 | 1010.7 |
| 20260507111819 | 42 | 221 | 11.0 | 14.0 | 0.00 | 0.00 | 0.00 | 39 | 1010.7 |
| 20260507111320 | 42 | 223 | 11.0 | 18.0 | 0.00 | 0.00 | 0.00 | 39 | 1010.8 |
| 20260507110821 | 42 | 242 | 10.0 | 18.0 | 0.00 | 0.00 | 0.00 | 40 | 1010.7 |
| 20260507110319 | 41 | 213 | 10.0 | 14.0 | 0.00 | 0.00 | 0.00 | 40 | 1010.5 |
| 20260507105820 | 41 | 212 | 9.0 | 14.0 | 0.00 | 0.00 | 0.00 | 40 | 1010.7 |
| 20260507105320 | 41 | 215 | 9.0 | 13.0 | 0.00 | 0.00 | 0.00 | 40 | 1010.5 |
| 20260507104819 | 41 | 198 | 8.0 | 11.0 | 0.00 | 0.00 | 0.00 | 40 | 1010.8 |
| 20260507104319 | 41 | 206 | 8.0 | 11.0 | 0.00 | 0.00 | 0.00 | 40 | 1010.7 |
| 20260507103548 | 40 | 199 | 7.0 | 9.0 | 0.00 | 0.00 | 0.00 | 40 | 1010.5 |
| 20260507102815 | 40 | 199 | 7.0 | 8.0 | 0.00 | 0.00 | 0.00 | 41 | 1010.5 |
| 20260507102545 | 40 | 199 | 7.0 | 9.0 | 0.00 | 0.00 | 0.00 | 41 | 1010.5 |
| 20260507101813 | 40 | 199 | 7.0 | 9.0 | 0.00 | 0.00 | 0.00 | 41 | 1010.5 |
| 20260507101313 | 40 | 192 | 8.0 | 10.0 | 0.00 | 0.00 | 0.00 | 41 | 1010.5 |
| 20260507100815 | 40 | 194 | 8.0 | 10.0 | 0.00 | 0.00 | 0.00 | 41 | 1010.7 |
| 20260507100307 | 40 | 184 | 7.0 | 11.0 | 0.00 | 0.00 | 0.00 | 41 | 1010.5 |
| 20260507095807 | 40 | 187 | 7.0 | 11.0 | 0.00 | 0.00 | 0.00 | 41 | 1010.7 |
| 20260507095308 | 40 | 185 | 7.0 | 9.0 | 0.00 | 0.00 | 0.00 | 41 | 1010.7 |
| 20260507094807 | 40 | 194 | 6.0 | 9.0 | 0.00 | 0.00 | 0.00 | 41 | 1010.8 |
| 20260507094308 | 40 | 197 | 6.0 | 9.0 | 0.00 | 0.00 | 0.00 | 41 | 1010.8 |
| 20260507093807 | 40 | 202 | 6.0 | 9.0 | 0.00 | 0.00 | 0.00 | 41 | 1010.8 |
| 20260507093302 | 40 | 188 | 6.0 | 9.0 | 0.00 | 0.00 | 0.00 | 42 | 1010.8 |
| 20260507092802 | 40 | 202 | 5.0 | 9.0 | 0.00 | 0.00 | 0.00 | 42 | 1010.9 |
| 20260507092535 | 40 | 202 | 5.0 | 9.0 | 0.00 | 0.00 | 0.00 | 41 | 1010.9 |
| 20260507091801 | 40 | 201 | 5.0 | 7.0 | 0.00 | 0.00 | 0.00 | 41 | 1010.9 |
| 20260507091301 | 40 | 219 | 4.0 | 6.0 | 0.00 | 0.00 | 0.00 | 41 | 1010.9 |
| 20260507090801 | 41 | 219 | 4.0 | 6.0 | 0.00 | 0.00 | 0.00 | 40 | 1010.9 |
| 20260507090255 | 41 | 219 | 4.0 | 5.0 | 0.00 | 0.00 | 0.00 | 40 | 1010.8 |
| 20260507090025 | 41 | 219 | 3.0 | 5.0 | 0.00 | 0.00 | 0.00 | 40 | 1010.8 |
| 20260507085255 | 41 | 219 | 3.0 | 5.0 | 0.00 | 0.00 | 0.00 | 40 | 1010.5 |
| 20260507084755 | 41 | 219 | 3.0 | 8.0 | 0.00 | 0.00 | 0.00 | 40 | 1010.5 |
| 20260507084255 | 41 | 219 | 4.0 | 8.0 | 0.00 | 0.00 | 0.00 | 40 | 1010.5 |
| 20260507084029 | 41 | 198 | 4.0 | 5.0 | 0.00 | 0.00 | 0.00 | 40 | 1010.7 |
| 20260507083251 | 41 | 198 | 4.0 | 6.0 | 0.00 | 0.00 | 0.00 | 40 | 1010.7 |
| 20260507082752 | 41 | 192 | 4.0 | 6.0 | 0.00 | 0.00 | 0.00 | 39 | 1010.5 |
| 20260507082248 | 41 | 187 | 4.0 | 7.0 | 0.00 | 0.00 | 0.00 | 39 | 1010.7 |
| 20260507081749 | 41 | 212 | 5.0 | 8.0 | 0.00 | 0.00 | 0.00 | 39 | 1010.5 |
| 20260507081249 | 41 | 234 | 5.0 | 9.0 | 0.00 | 0.00 | 0.00 | 39 | 1010.7 |
| 20260507081020 | 41 | 232 | 5.0 | 9.0 | 0.00 | 0.00 | 0.00 | 39 | 1010.5 |
| 20260507080243 | 41 | 230 | 5.0 | 8.0 | 0.00 | 0.00 | 0.00 | 39 | 1010.7 |
| 20260507075743 | 41 | 208 | 6.0 | 11.0 | 0.00 | 0.00 | 0.00 | 39 | 1010.7 |
| 20260507075247 | 42 | 208 | 6.0 | 11.0 | 0.00 | 0.00 | 0.00 | 39 | 1010.8 |
| 20260507075013 | 42 | 210 | 7.0 | 9.0 | 0.00 | 0.00 | 0.00 | 38 | 1010.8 |
| 20260507074243 | 43 | 215 | 8.0 | 12.0 | 0.00 | 0.00 | 0.00 | 38 | 1010.9 |
| 20260507073743 | 43 | 237 | 7.0 | 12.0 | 0.00 | 0.00 | 0.00 | 37 | 1011.0 |
| 20260507073239 | 43 | 250 | 5.0 | 10.0 | 0.00 | 0.00 | 0.00 | 37 | 1011.0 |
| 20260507072739 | 43 | 250 | 5.0 | 8.0 | 0.00 | 0.00 | 0.00 | 37 | 1011.1 |
| 20260507072236 | 43 | 258 | 3.0 | 7.0 | 0.00 | 0.00 | 0.00 | 37 | 1011.2 |
| 20260507071737 | 43 | 258 | 3.0 | 7.0 | 0.00 | 0.00 | 0.00 | 37 | 1011.1 |
| 20260507071238 | 43 | 242 | 4.0 | 7.0 | 0.00 | 0.00 | 0.00 | 37 | 1011.2 |
| 20260507070739 | 43 | 248 | 4.0 | 6.0 | 0.00 | 0.00 | 0.00 | 37 | 1011.1 |
| 20260507070231 | 43 | 273 | 3.0 | 6.0 | 0.00 | 0.00 | 0.00 | 37 | 1011.2 |
| 20260507065731 | 43 | 205 | 3.0 | 5.0 | 0.00 | 0.00 | 0.00 | 38 | 1011.1 |
| 20260507065231 | 42 | 205 | 3.0 | 5.0 | 0.00 | 0.00 | 0.00 | 38 | 1011.1 |
| 20260507064731 | 42 | 205 | 3.0 | 4.0 | 0.00 | 0.00 | 0.00 | 38 | 1011.1 |
| 20260507064501 | 42 | 205 | 3.0 | 5.0 | 0.00 | 0.00 | 0.00 | 38 | 1011.1 |
| 20260507063731 | 42 | 205 | 4.0 | 8.0 | 0.00 | 0.00 | 0.00 | 38 | 1011.1 |
| 20260507063225 | 42 | 205 | 5.0 | 8.0 | 0.00 | 0.00 | 0.00 | 38 | 1011.2 |
| 20260507062725 | 42 | 213 | 4.0 | 8.0 | 0.00 | 0.00 | 0.00 | 38 | 1011.2 |
| 20260507062228 | 42 | 215 | 4.0 | 9.0 | 0.00 | 0.00 | 0.00 | 38 | 1011.4 |
| 20260507061725 | 42 | 213 | 5.0 | 9.0 | 0.00 | 0.00 | 0.00 | 38 | 1011.2 |
| 20260507061224 | 42 | 216 | 6.0 | 10.0 | 0.00 | 0.00 | 0.00 | 38 | 1011.5 |
| 20260507060223 | 42 | 202 | 7.0 | 10.0 | 0.00 | 0.00 | 0.00 | 38 | 1011.4 |
| 20260507055724 | 42 | 199 | 6.0 | 10.0 | 0.00 | 0.00 | 0.00 | 38 | 1011.4 |
| 20260507055224 | 43 | 198 | 6.0 | 9.0 | 0.00 | 0.00 | 0.00 | 37 | 1011.4 |
| 20260507054724 | 43 | 190 | 5.0 | 8.0 | 0.00 | 0.00 | 0.00 | 37 | 1011.4 |
| 20260507054223 | 43 | 190 | 5.0 | 7.0 | 0.00 | 0.00 | 0.00 | 37 | 1011.6 |
| 20260507053719 | 43 | 194 | 5.0 | 7.0 | 0.00 | 0.00 | 0.00 | 36 | 1011.5 |
| 20260507053220 | 43 | 202 | 5.0 | 7.0 | 0.00 | 0.00 | 0.00 | 36 | 1011.6 |
| 20260507052720 | 43 | 190 | 5.0 | 6.0 | 0.00 | 0.00 | 0.00 | 36 | 1011.6 |
| 20260507052451 | 44 | 192 | 4.0 | 6.0 | 0.00 | 0.00 | 0.00 | 36 | 1011.6 |
| 20260507051719 | 44 | 178 | 3.0 | 6.0 | 0.00 | 0.00 | 0.00 | 35 | 1011.7 |
| 20260507051219 | 44 | 178 | 2.0 | 6.0 | 0.00 | 0.00 | 0.00 | 35 | 1011.7 |
| 20260507050719 | 44 | 178 | 2.0 | 6.0 | 0.00 | 0.00 | 0.00 | 35 | 1011.7 |
| 20260507050221 | 44 | 202 | 3.0 | 4.0 | 0.00 | 0.00 | 0.00 | 34 | 1011.7 |
| 20260507045717 | 45 | 202 | 2.0 | 4.0 | 0.00 | 0.00 | 0.00 | 34 | 1011.8 |
| 20260507045216 | 45 | 314 | 2.0 | 3.0 | 0.00 | 0.00 | 0.00 | 34 | 1011.8 |
| 20260507044713 | 45 | 314 | 1.0 | 3.0 | 0.00 | 0.00 | 0.00 | 33 | 1011.8 |
| 20260507044212 | 46 | 314 | 1.0 | 2.0 | 0.00 | 0.00 | 0.00 | 33 | 1012.0 |
| 20260507043943 | 46 | 314 | 2.0 | 3.0 | 0.00 | 0.00 | 0.00 | 33 | 1011.9 |
| 20260507043213 | 46 | 314 | 2.0 | 3.0 | 0.00 | 0.00 | 0.00 | 33 | 1012.0 |
| 20260507042709 | 46 | 314 | 2.0 | 4.0 | 0.00 | 0.00 | 0.00 | 33 | 1011.9 |
| 20260507042207 | 46 | 314 | 3.0 | 4.0 | 0.00 | 0.00 | 0.00 | 33 | 1011.9 |
| 20260507041707 | 46 | 314 | 3.0 | 4.0 | 0.00 | 0.00 | 0.00 | 33 | 1012.0 |
| 20260507041207 | 46 | 314 | 3.0 | 4.0 | 0.00 | 0.00 | 0.00 | 33 | 1012.2 |
| 20260507040936 | 46 | 314 | 3.0 | 4.0 | 0.00 | 0.00 | 0.00 | 33 | 1012.3 |
| 20260507040205 | 46 | 340 | 3.0 | 6.0 | 0.00 | 0.00 | 0.00 | 32 | 1012.3 |
| 20260507035659 | 46 | 340 | 4.0 | 6.0 | 0.00 | 0.00 | 0.00 | 32 | 1012.3 |
| 20260507035159 | 46 | 342 | 4.0 | 5.0 | 0.00 | 0.00 | 0.00 | 32 | 1012.4 |
| 20260507034703 | 46 | 347 | 4.0 | 5.0 | 0.00 | 0.00 | 0.00 | 32 | 1012.4 |
| 20260507034159 | 46 | 345 | 4.0 | 5.0 | 0.00 | 0.00 | 0.00 | 31 | 1012.4 |
| 20260507033659 | 46 | 326 | 4.0 | 6.0 | 0.00 | 0.00 | 0.00 | 31 | 1012.4 |
| 20260507033159 | 47 | 326 | 3.0 | 6.0 | 0.00 | 0.00 | 0.00 | 31 | 1012.5 |
| 20260507032655 | 47 | 258 | 2.0 | 4.0 | 0.00 | 0.00 | 0.00 | 31 | 1012.4 |
| 20260507032156 | 47 | 258 | 3.0 | 4.0 | 0.00 | 0.00 | 0.00 | 31 | 1012.4 |
| 20260507031654 | 47 | 258 | 2.0 | 4.0 | 0.00 | 0.00 | 0.00 | 31 | 1012.7 |
| 20260507031153 | 47 | 258 | 2.0 | 4.0 | 0.00 | 0.00 | 0.00 | 31 | 1012.7 |
| 20260507030653 | 47 | 258 | 2.0 | 4.0 | 0.00 | 0.00 | 0.00 | 32 | 1012.8 |
| 20260507030155 | 46 | 257 | 2.0 | 4.0 | 0.00 | 0.00 | 0.00 | 32 | 1013.0 |
| 20260507025647 | 46 | 257 | 1.0 | 3.0 | 0.00 | 0.00 | 0.00 | 32 | 1013.0 |
| 20260507025147 | 46 | 258 | 2.0 | 3.0 | 0.00 | 0.00 | 0.00 | 32 | 1013.0 |
| 20260507024647 | 47 | 257 | 3.0 | 4.0 | 0.00 | 0.00 | 0.00 | 32 | 1012.8 |
| 20260507024147 | 47 | 258 | 4.0 | 7.0 | 0.00 | 0.00 | 0.00 | 32 | 1013.0 |
| 20260507023647 | 47 | 258 | 5.0 | 7.0 | 0.00 | 0.00 | 0.00 | 31 | 1013.0 |
| 20260507023417 | 47 | 269 | 5.0 | 10.0 | 0.00 | 0.00 | 0.00 | 31 | 1013.0 |
| 20260507022645 | 47 | 268 | 6.0 | 10.0 | 0.00 | 0.00 | 0.00 | 31 | 1013.1 |
| 20260507022415 | 47 | 256 | 6.0 | 9.0 | 0.00 | 0.00 | 0.00 | 31 | 1013.2 |
| 20260507021644 | 47 | 234 | 7.0 | 10.0 | 0.00 | 0.00 | 0.00 | 31 | 1013.1 |
| 20260507020640 | 47 | 227 | 7.0 | 11.0 | 0.00 | 0.00 | 0.00 | 31 | 1013.2 |
| 20260507020141 | 47 | 233 | 8.0 | 11.0 | 0.00 | 0.00 | 0.00 | 32 | 1013.2 |
| 20260507015636 | 47 | 215 | 8.0 | 10.0 | 0.00 | 0.00 | 0.00 | 32 | 1013.2 |
| 20260507015135 | 47 | 211 | 9.0 | 11.0 | 0.00 | 0.00 | 0.00 | 32 | 1013.2 |
| 20260507014634 | 47 | 219 | 9.0 | 12.0 | 0.00 | 0.00 | 0.00 | 32 | 1013.2 |
| 20260507014135 | 47 | 211 | 10.0 | 12.0 | 0.00 | 0.00 | 0.00 | 32 | 1013.2 |
| 20260507013634 | 47 | 206 | 10.0 | 14.0 | 0.00 | 0.00 | 0.00 | 32 | 1013.2 |
| 20260507013136 | 48 | 201 | 11.0 | 16.0 | 0.00 | 0.00 | 0.00 | 31 | 1013.1 |
| 20260507012902 | 48 | 207 | 12.0 | 16.0 | 0.00 | 0.00 | 0.00 | 31 | 1013.1 |
| 20260507012132 | 48 | 198 | 12.0 | 16.0 | 0.00 | 0.00 | 0.00 | 31 | 1013.1 |
| 20260507011631 | 48 | 184 | 11.0 | 16.0 | 0.00 | 0.00 | 0.00 | 31 | 1013.1 |
| 20260507011131 | 48 | 202 | 14.0 | 21.0 | 0.00 | 0.00 | 0.00 | 30 | 1013.2 |
| 20260507010629 | 49 | 199 | 15.0 | 22.0 | 0.00 | 0.00 | 0.00 | 29 | 1013.1 |
| 20260507010128 | 49 | 216 | 13.0 | 21.0 | 0.00 | 0.00 | 0.00 | 29 | 1013.0 |
| 20260507005622 | 49 | 213 | 14.0 | 23.0 | 0.00 | 0.00 | 0.00 | 29 | 1013.1 |
| 20260507005123 | 50 | 207 | 14.0 | 23.0 | 0.00 | 0.00 | 0.00 | 29 | 1013.2 |
| 20260507004625 | 50 | 192 | 13.0 | 22.0 | 0.00 | 0.00 | 0.00 | 29 | 1013.2 |
| 20260507004123 | 50 | 225 | 15.0 | 22.0 | 0.00 | 0.00 | 0.00 | 28 | 1013.2 |
| 20260507003623 | 50 | 203 | 19.0 | 28.0 | 0.00 | 0.00 | 0.00 | 29 | 1013.2 |
| 20260507003123 | 50 | 200 | 20.0 | 28.0 | 0.00 | 0.00 | 0.00 | 28 | 1013.1 |
| 20260507002620 | 50 | 201 | 18.0 | 26.0 | 0.00 | 0.00 | 0.00 | 28 | 1013.0 |
| 20260507002118 | 50 | 175 | 17.0 | 24.0 | 0.00 | 0.00 | 0.00 | 27 | 1013.1 |
| 20260507001619 | 50 | 186 | 18.0 | 31.0 | 0.00 | 0.00 | 0.00 | 27 | 1013.2 |
| 20260507001118 | 51 | 182 | 18.0 | 31.0 | 0.00 | 0.00 | 0.00 | 26 | 1013.3 |
| 20260507000850 | 51 | 198 | 14.0 | 24.0 | 0.00 | 0.00 | 0.00 | 28 | 1013.3 |
| 20260507000120 | 50 | 206 | 12.0 | 18.0 | 0.00 | 0.00 | 0.00 | 30 | 1013.5 |
| 20260506235850 | 49 | 213 | 13.0 | 18.0 | 0.00 | 0.00 | 0.00 | 28 | 1013.5 |
| 20260506235114 | 49 | 212 | 16.0 | 25.0 | 0.00 | 0.00 | 0.00 | 29 | 1013.5 |
| 20260506234845 | 50 | 206 | 19.0 | 29.0 | 0.00 | 0.00 | 0.00 | 29 | 1013.4 |
| 20260506234114 | 50 | 191 | 18.0 | 29.0 | 0.00 | 0.00 | 0.00 | 27 | 1013.3 |
| 20260506233614 | 49 | 197 | 17.0 | 27.0 | 0.00 | 0.00 | 0.00 | 27 | 1013.3 |
| 20260506233116 | 49 | 211 | 17.0 | 26.0 | 0.00 | 0.00 | 0.00 | 29 | 1013.6 |
| 20260506232614 | 49 | 225 | 17.0 | 26.0 | 0.00 | 0.00 | 0.00 | 28 | 1013.5 |
| 20260506232115 | 50 | 209 | 15.0 | 25.0 | 0.00 | 0.00 | 0.00 | 28 | 1013.6 |
| 20260506231613 | 51 | 252 | 13.0 | 20.0 | 0.00 | 0.00 | 0.00 | 28 | 1013.8 |
| 20260506231113 | 50 | 216 | 13.0 | 20.0 | 0.00 | 0.00 | 0.00 | 28 | 1013.6 |
| 20260506230613 | 50 | 244 | 12.0 | 20.0 | 0.00 | 0.00 | 0.00 | 29 | 1013.9 |
| 20260506230112 | 49 | 262 | 15.0 | 25.0 | 0.00 | 0.00 | 0.00 | 28 | 1013.9 |
| 20260506225843 | 50 | 238 | 18.0 | 25.0 | 0.00 | 0.00 | 0.00 | 28 | 1014.0 |
| 20260506225112 | 50 | 187 | 14.0 | 28.0 | 0.00 | 0.00 | 0.00 | 28 | 1013.8 |
| 20260506224613 | 51 | 208 | 14.0 | 28.0 | 0.00 | 0.00 | 0.00 | 29 | 1013.6 |
| 20260506224111 | 51 | 221 | 15.0 | 25.0 | 0.00 | 0.00 | 0.00 | 28 | 1014.1 |
| 20260506223841 | 52 | 257 | 12.0 | 23.0 | 0.00 | 0.00 | 0.00 | 29 | 1014.1 |
| 20260506223341 | 51 | 173 | 14.0 | 24.0 | 0.00 | 0.00 | 0.00 | 30 | 1014.2 |
| 20260506222843 | 51 | 203 | 16.0 | 24.0 | 0.00 | 0.00 | 0.00 | 30 | 1014.2 |
| 20260506222341 | 52 | 240 | 16.0 | 24.0 | 0.00 | 0.00 | 0.00 | 32 | 1014.2 |
| 20260506221611 | 51 | 250 | 14.0 | 24.0 | 0.00 | 0.00 | 0.00 | 31 | 1014.1 |
| 20260506221106 | 51 | 223 | 12.0 | 24.0 | 0.00 | 0.00 | 0.00 | 31 | 1014.3 |
| 20260506220837 | 51 | 244 | 17.0 | 28.0 | 0.00 | 0.00 | 0.00 | 31 | 1014.6 |
| 20260506220106 | 51 | 215 | 18.0 | 28.0 | 0.00 | 0.00 | 0.00 | 30 | 1014.4 |
| 20260506215837 | 50 | 217 | 17.0 | 30.0 | 0.00 | 0.00 | 0.00 | 31 | 1014.4 |
| 20260506215107 | 51 | 215 | 17.0 | 30.0 | 0.00 | 0.00 | 0.00 | 30 | 1014.7 |
| 20260506214606 | 51 | 245 | 14.0 | 25.0 | 0.00 | 0.00 | 0.00 | 31 | 1014.8 |
| 20260506214104 | 50 | 259 | 14.0 | 25.0 | 0.00 | 0.00 | 0.00 | 33 | 1014.9 |
| 20260506213602 | 51 | 246 | 17.0 | 28.0 | 0.00 | 0.00 | 0.00 | 30 | 1015.0 |
| 20260506213103 | 50 | 244 | 17.0 | 28.0 | 0.00 | 0.00 | 0.00 | 31 | 1015.1 |
| 20260506212604 | 50 | 248 | 16.0 | 28.0 | 0.00 | 0.00 | 0.00 | 32 | 1015.1 |
| 20260506212102 | 49 | 251 | 15.0 | 28.0 | 0.00 | 0.00 | 0.00 | 32 | 1015.0 |
| 20260506211602 | 49 | 275 | 15.0 | 23.0 | 0.00 | 0.00 | 0.00 | 32 | 1015.4 |
| 20260506211058 | 49 | 225 | 17.0 | 29.0 | 0.00 | 0.00 | 0.00 | 30 | 1015.5 |
| 20260506210556 | 49 | 252 | 17.0 | 29.0 | 0.00 | 0.00 | 0.00 | 31 | 1015.6 |
| 20260506210057 | 49 | 274 | 15.0 | 24.0 | 0.00 | 0.00 | 0.00 | 31 | 1015.6 |
| 20260506205558 | 49 | 281 | 14.0 | 24.0 | 0.00 | 0.00 | 0.00 | 32 | 1015.6 |
| 20260506205055 | 49 | 253 | 14.0 | 21.0 | 0.00 | 0.00 | 0.00 | 31 | 1015.7 |
| 20260506204554 | 48 | 221 | 15.0 | 25.0 | 0.00 | 0.00 | 0.00 | 34 | 1015.8 |
| 20260506204054 | 48 | 257 | 17.0 | 25.0 | 0.00 | 0.00 | 0.00 | 31 | 1015.7 |
| 20260506203554 | 49 | 271 | 16.0 | 30.0 | 0.00 | 0.00 | 0.00 | 32 | 1015.8 |
| 20260506202555 | 48 | 294 | 14.0 | 24.0 | 0.00 | 0.00 | 0.00 | 33 | 1015.9 |
| 20260506202054 | 49 | 273 | 14.0 | 24.0 | 0.00 | 0.00 | 0.00 | 33 | 1015.9 |
| 20260506201552 | 48 | 278 | 14.0 | 25.0 | 0.00 | 0.00 | 0.00 | 31 | 1016.0 |
| 20260506201051 | 48 | 267 | 15.0 | 26.0 | 0.00 | 0.00 | 0.00 | 32 | 1015.9 |
| 20260506200550 | 47 | 267 | 16.0 | 26.0 | 0.00 | 0.00 | 0.00 | 35 | 1016.3 |
| 20260506200050 | 48 | 277 | 15.0 | 26.0 | 0.00 | 0.00 | 0.00 | 35 | 1016.0 |
| 20260506195548 | 47 | 269 | 14.0 | 25.0 | 0.00 | 0.00 | 0.00 | 36 | 1016.2 |
| 20260506195049 | 47 | 259 | 15.0 | 26.0 | 0.00 | 0.00 | 0.00 | 37 | 1016.2 |
| 20260506194542 | 47 | 286 | 17.0 | 26.0 | 0.00 | 0.00 | 0.00 | 35 | 1016.2 |
| 20260506194042 | 47 | 253 | 17.0 | 25.0 | 0.00 | 0.00 | 0.00 | 35 | 1016.2 |
| 20260506193543 | 48 | 242 | 14.0 | 24.0 | 0.00 | 0.00 | 0.00 | 35 | 1016.3 |
| 20260506193314 | 47 | 267 | 12.0 | 23.0 | 0.00 | 0.00 | 0.00 | 35 | 1016.3 |
| 20260506192542 | 47 | 287 | 13.0 | 21.0 | 0.00 | 0.00 | 0.00 | 35 | 1016.4 |
| 20260506192043 | 46 | 261 | 15.0 | 23.0 | 0.00 | 0.00 | 0.00 | 36 | 1016.4 |
| 20260506191536 | 46 | 262 | 17.0 | 28.0 | 0.00 | 0.00 | 0.00 | 35 | 1016.5 |
| 20260506191307 | 46 | 259 | 15.0 | 28.0 | 0.00 | 0.00 | 0.00 | 35 | 1016.5 |
| 20260506190537 | 46 | 247 | 14.0 | 27.0 | 0.00 | 0.00 | 0.00 | 35 | 1016.6 |
| 20260506190036 | 44 | 271 | 13.0 | 20.0 | 0.00 | 0.00 | 0.00 | 34 | 1017.0 |
| 20260506185536 | 45 | 279 | 12.0 | 23.0 | 0.00 | 0.00 | 0.00 | 37 | 1016.8 |
| 20260506185036 | 45 | 225 | 14.0 | 23.0 | 0.00 | 0.00 | 0.00 | 36 | 1017.2 |
| 20260506184530 | 45 | 234 | 13.0 | 21.0 | 0.00 | 0.00 | 0.00 | 34 | 1017.2 |
| 20260506184031 | 45 | 261 | 12.0 | 21.0 | 0.00 | 0.00 | 0.00 | 37 | 1017.3 |
| 20260506183533 | 43 | 275 | 15.0 | 24.0 | 0.00 | 0.00 | 0.00 | 37 | 1017.4 |
| 20260506183030 | 44 | 271 | 13.0 | 24.0 | 0.00 | 0.00 | 0.00 | 37 | 1017.5 |
| 20260506182530 | 44 | 262 | 12.0 | 24.0 | 0.00 | 0.00 | 0.00 | 38 | 1017.5 |
| 20260506182030 | 44 | 257 | 10.0 | 24.0 | 0.00 | 0.00 | 0.00 | 39 | 1017.5 |
| 20260506181524 | 43 | 285 | 9.0 | 18.0 | 0.00 | 0.00 | 0.00 | 41 | 1017.8 |
| 20260506180523 | 42 | 313 | 12.0 | 20.0 | 0.00 | 0.00 | 0.00 | 38 | 1017.8 |
| 20260506180256 | 43 | 258 | 12.0 | 20.0 | 0.00 | 0.00 | 0.00 | 38 | 1017.9 |
| 20260506175026 | 43 | 222 | 9.0 | 21.0 | 0.00 | 0.00 | 0.00 | 39 | 1018.1 |
| 20260506174520 | 41 | 238 | 9.0 | 18.0 | 0.00 | 0.00 | 0.00 | 42 | 1018.1 |
| 20260506174019 | 42 | 276 | 12.0 | 21.0 | 0.00 | 0.00 | 0.00 | 39 | 1018.1 |
| 20260506173518 | 42 | 243 | 14.0 | 21.0 | 0.00 | 0.00 | 0.00 | 41 | 1018.2 |
| 20260506173018 | 42 | 219 | 12.0 | 21.0 | 0.00 | 0.00 | 0.00 | 39 | 1018.1 |
| 20260506172518 | 42 | 251 | 10.0 | 15.0 | 0.00 | 0.00 | 0.00 | 43 | 1018.2 |
| 20260506172018 | 41 | 292 | 10.0 | 16.0 | 0.00 | 0.00 | 0.00 | 42 | 1018.2 |
| 20260506171512 | 41 | 259 | 10.0 | 16.0 | 0.00 | 0.00 | 0.00 | 40 | 1018.2 |
| 20260506171012 | 40 | 269 | 10.0 | 20.0 | 0.00 | 0.00 | 0.00 | 44 | 1018.2 |
| 20260506170514 | 40 | 272 | 10.0 | 20.0 | 0.00 | 0.00 | 0.00 | 41 | 1018.3 |
| 20260506170243 | 39 | 269 | 11.0 | 22.0 | 0.00 | 0.00 | 0.00 | 42 | 1018.3 |
| 20260506165513 | 40 | 227 | 13.0 | 22.0 | 0.00 | 0.00 | 0.00 | 42 | 1018.7 |
| 20260506165011 | 40 | 238 | 13.0 | 20.0 | 0.00 | 0.00 | 0.00 | 42 | 1018.8 |
| 20260506164510 | 40 | 281 | 13.0 | 20.0 | 0.00 | 0.00 | 0.00 | 42 | 1018.7 |
| 20260506164010 | 40 | 266 | 14.0 | 23.0 | 0.00 | 0.00 | 0.00 | 44 | 1018.6 |
| 20260506163241 | 39 | 225 | 12.0 | 22.0 | 0.00 | 0.00 | 0.00 | 42 | 1018.6 |
| 20260506162510 | 39 | 219 | 12.0 | 20.0 | 0.00 | 0.00 | 0.00 | 43 | 1018.4 |
| 20260506162010 | 39 | 277 | 13.0 | 18.0 | 0.00 | 0.00 | 0.00 | 43 | 1018.6 |
| 20260506161512 | 38 | 279 | 12.0 | 18.0 | 0.00 | 0.00 | 0.00 | 43 | 1018.7 |
| 20260506161004 | 38 | 180 | 14.0 | 22.0 | 0.00 | 0.00 | 0.00 | 44 | 1018.7 |
| 20260506160504 | 38 | 213 | 15.0 | 22.0 | 0.00 | 0.00 | 0.00 | 44 | 1018.7 |
| 20260506160234 | 38 | 271 | 13.0 | 20.0 | 0.00 | 0.00 | 0.00 | 43 | 1018.8 |
| 20260506155735 | 38 | 267 | 12.0 | 24.0 | 0.00 | 0.00 | 0.00 | 44 | 1018.8 |
| 20260506155004 | 37 | 218 | 12.0 | 24.0 | 0.00 | 0.00 | 0.00 | 47 | 1018.9 |
| 20260506154506 | 37 | 192 | 13.0 | 20.0 | 0.00 | 0.00 | 0.00 | 46 | 1018.9 |
| 20260506154006 | 37 | 250 | 14.0 | 22.0 | 0.00 | 0.00 | 0.00 | 45 | 1019.1 |
| 20260506153502 | 37 | 199 | 14.0 | 22.0 | 0.00 | 0.00 | 0.00 | 47 | 1018.9 |
| 20260506153002 | 37 | 277 | 13.0 | 22.0 | 0.00 | 0.00 | 0.00 | 47 | 1019.0 |
| 20260506152502 | 36 | 229 | 12.0 | 22.0 | 0.00 | 0.00 | 0.00 | 46 | 1019.0 |
| 20260506152002 | 36 | 271 | 13.0 | 22.0 | 0.00 | 0.00 | 0.00 | 47 | 1019.1 |
| 20260506151734 | 36 | 274 | 15.0 | 24.0 | 0.00 | 0.00 | 0.00 | 45 | 1019.2 |
| 20260506151002 | 35 | 204 | 15.0 | 24.0 | 0.00 | 0.00 | 0.00 | 46 | 1019.0 |
| 20260506150505 | 35 | 213 | 15.0 | 21.0 | 0.00 | 0.00 | 0.00 | 49 | 1019.0 |
| 20260506150004 | 35 | 217 | 16.0 | 22.0 | 0.00 | 0.00 | 0.00 | 49 | 1018.9 |
| 20260506145502 | 35 | 256 | 14.0 | 22.0 | 0.00 | 0.00 | 0.00 | 48 | 1019.0 |
| 20260506144956 | 35 | 209 | 14.0 | 23.0 | 0.00 | 0.00 | 0.00 | 49 | 1019.2 |
| 20260506144450 | 34 | 222 | 16.0 | 23.0 | 0.00 | 0.00 | 0.00 | 49 | 1019.0 |
| 20260506143945 | 34 | 219 | 15.0 | 23.0 | 0.00 | 0.00 | 0.00 | 50 | 1019.1 |
| 20260506143716 | 34 | 226 | 14.0 | 23.0 | 0.00 | 0.00 | 0.00 | 50 | 1019.1 |
| 20260506143217 | 34 | 224 | 14.0 | 23.0 | 0.00 | 0.00 | 0.00 | 51 | 1019.1 |
| 20260506142718 | 34 | 235 | 14.0 | 23.0 | 0.00 | 0.00 | 0.00 | 51 | 1019.0 |
| 20260506141945 | 34 | 281 | 14.0 | 23.0 | 0.00 | 0.00 | 0.00 | 53 | 1019.1 |
| 20260506141717 | 33 | 213 | 15.0 | 23.0 | 0.00 | 0.00 | 0.00 | 54 | 1019.0 |
| 20260506140942 | 33 | 244 | 15.0 | 23.0 | 0.00 | 0.00 | 0.00 | 54 | 1019.0 |
| 20260506140442 | 33 | 218 | 15.0 | 23.0 | 0.00 | 0.00 | 0.00 | 53 | 1019.0 |
| 20260506135941 | 33 | 213 | 14.0 | 22.0 | 0.00 | 0.00 | 0.00 | 54 | 1019.0 |
| 20260506135441 | 32 | 206 | 14.0 | 20.0 | 0.00 | 0.00 | 0.00 | 55 | 1019.1 |
| 20260506134941 | 32 | 230 | 14.0 | 22.0 | 0.00 | 0.00 | 0.00 | 57 | 1019.0 |